WJA746 CYQT-CYXU

Flight info

Callsign WJA746
Flight time 1h 12m
Altitude 37000
Route ALNAN DCT KARIT
Aircraft B738/M-SDE2E3FGHIRWXY/LB1

Departure

Time 2026-04-23 16:45
Airport Thunder Bay International Airport (CYQT)

Arrival

Time 2026-04-23 17:58
Airport London International Airport (CYXU)
Time Latitude Longitude Altitude Speed Heading
2026-04-23 16:15 48.37187 -89.31344 653 ft 0 kts 117°
2026-04-23 16:35 48.37188 -89.31348 652 ft 2 kts 117°
2026-04-23 16:35 48.37195 -89.31370 652 ft 2 kts 115°
2026-04-23 16:36 48.37202 -89.31393 654 ft 2 kts 111°
2026-04-23 16:36 48.37207 -89.31417 653 ft 2 kts 96°
2026-04-23 16:36 48.37204 -89.31439 652 ft 2 kts 47°
2026-04-23 16:36 48.37201 -89.31443 652 ft 0 kts 46°
2026-04-23 16:39 48.37202 -89.31443 652 ft 0 kts 46°
2026-04-23 16:39 48.37221 -89.31419 654 ft 7 kts 37°
2026-04-23 16:40 48.37274 -89.31355 652 ft 11 kts 37°
2026-04-23 16:40 48.37316 -89.31354 653 ft 5 kts 282°
2026-04-23 16:40 48.37309 -89.31406 652 ft 6 kts 251°
2026-04-23 16:40 48.37290 -89.31488 652 ft 11 kts 250°
2026-04-23 16:41 48.37256 -89.31636 652 ft 18 kts 250°
2026-04-23 16:41 48.37207 -89.31844 651 ft 22 kts 251°
2026-04-23 16:41 48.37155 -89.32056 651 ft 21 kts 250°
2026-04-23 16:41 48.37108 -89.32264 649 ft 21 kts 250°
2026-04-23 16:42 48.37060 -89.32465 648 ft 20 kts 250°
2026-04-23 16:42 48.37021 -89.32662 645 ft 19 kts 272°
2026-04-23 16:42 48.37081 -89.32839 646 ft 19 kts 302°
2026-04-23 16:42 48.37106 -89.32960 646 ft 18 kts 262°
2026-04-23 16:43 48.37055 -89.33202 650 ft 18 kts 252°
2026-04-23 16:43 48.37037 -89.33317 648 ft 11 kts 278°
2026-04-23 16:43 48.37020 -89.33340 650 ft 5 kts 89°
2026-04-23 16:43 48.37028 -89.33309 652 ft 5 kts 70°
2026-04-23 16:44 48.37033 -89.33288 648 ft 0 kts 69°
2026-04-23 16:44 48.37046 -89.33237 648 ft 27 kts 70°
2026-04-23 16:45 48.37195 -89.32603 648 ft 99 kts 70°
2026-04-23 16:45 48.37491 -89.31355 760 ft 145 kts 71°
2026-04-23 16:45 48.37833 -89.29924 1562 ft 147 kts 71°
2026-04-23 16:45 48.38210 -89.28381 2193 ft 167 kts 75°
2026-04-23 16:46 48.38329 -89.26689 2855 ft 170 kts 100°
2026-04-23 16:46 48.38188 -89.24786 3065 ft 194 kts 101°
2026-04-23 16:46 48.38028 -89.22686 3238 ft 215 kts 100°
2026-04-23 16:46 48.37858 -89.20361 3397 ft 234 kts 100°
2026-04-23 16:47 48.37683 -89.17838 3671 ft 250 kts 100°
2026-04-23 16:47 48.37510 -89.15194 4219 ft 258 kts 100°
2026-04-23 16:47 48.37339 -89.12460 4721 ft 267 kts 99°
2026-04-23 16:47 48.37166 -89.09631 5209 ft 275 kts 99°
2026-04-23 16:48 48.36993 -89.06722 5727 ft 283 kts 100°
2026-04-23 16:48 48.36816 -89.03729 6242 ft 291 kts 101°
2026-04-23 16:48 48.36636 -89.00657 6775 ft 297 kts 101°
2026-04-23 16:48 48.36457 -88.97554 7451 ft 299 kts 101°
2026-04-23 16:49 48.36277 -88.94445 8179 ft 300 kts 100°
2026-04-23 16:49 48.36095 -88.91310 8915 ft 301 kts 100°
2026-04-23 16:49 48.35912 -88.88167 9640 ft 304 kts 100°
2026-04-23 16:49 48.35724 -88.84984 10299 ft 308 kts 100°
2026-04-23 16:50 48.35524 -88.81670 10503 ft 330 kts 100°
2026-04-23 16:50 48.35310 -88.78126 10704 ft 350 kts 99°
2026-04-23 16:50 48.35088 -88.74419 11152 ft 360 kts 99°
2026-04-23 16:50 48.34866 -88.70654 11771 ft 364 kts 99°
2026-04-23 16:51 48.34639 -88.66836 12444 ft 368 kts 99°
2026-04-23 16:51 48.34408 -88.62992 13096 ft 373 kts 99°
2026-04-23 16:51 48.34170 -88.59089 13765 ft 377 kts 99°
2026-04-23 16:51 48.33856 -88.55160 14388 ft 379 kts 105°
2026-04-23 16:52 48.33135 -88.51426 15058 ft 376 kts 116°
2026-04-23 16:52 48.31998 -88.47842 15771 ft 376 kts 122°
2026-04-23 16:52 48.30796 -88.44394 16410 ft 380 kts 122°
2026-04-23 16:52 48.29531 -88.40824 17043 ft 384 kts 122°
2026-04-23 16:53 48.28272 -88.37272 17676 ft 388 kts 122°
2026-04-23 16:53 48.27001 -88.33674 18300 ft 392 kts 122°
2026-04-23 16:53 48.25739 -88.30085 18827 ft 396 kts 121°
2026-04-23 16:53 48.24449 -88.26404 19290 ft 402 kts 121°
2026-04-23 16:54 48.23136 -88.22655 19691 ft 409 kts 121°
2026-04-23 16:54 48.21808 -88.18858 20204 ft 413 kts 121°
2026-04-23 16:54 48.20470 -88.15035 20704 ft 416 kts 121°
2026-04-23 16:54 48.19122 -88.11185 21231 ft 419 kts 121°
2026-04-23 16:55 48.17761 -88.07304 21693 ft 423 kts 121°
2026-04-23 16:55 48.16381 -88.03376 22146 ft 427 kts 121°
2026-04-23 16:55 48.14992 -87.99431 22610 ft 431 kts 121°
2026-04-23 16:55 48.13583 -87.95434 23057 ft 435 kts 121°
2026-04-23 16:56 48.12164 -87.91413 23503 ft 439 kts 120°
2026-04-23 16:56 48.10731 -87.87362 23880 ft 442 kts 120°
2026-04-23 16:56 48.09290 -87.83292 24303 ft 443 kts 120°
2026-04-23 16:56 48.07842 -87.79211 24722 ft 445 kts 120°
2026-04-23 16:57 48.06384 -87.75105 25141 ft 447 kts 120°
2026-04-23 16:57 48.04924 -87.71002 25530 ft 449 kts 120°
2026-04-23 16:57 48.03452 -87.66872 25916 ft 451 kts 120°
2026-04-23 16:57 48.01972 -87.62724 26287 ft 453 kts 120°
2026-04-23 16:58 48.00503 -87.58615 26664 ft 455 kts 120°
2026-04-23 16:58 47.99005 -87.54435 27030 ft 458 kts 120°
2026-04-23 16:58 47.97500 -87.50240 27402 ft 459 kts 120°
2026-04-23 16:58 47.95991 -87.46039 27802 ft 460 kts 120°
2026-04-23 16:59 47.94474 -87.41822 28088 ft 464 kts 120°
2026-04-23 16:59 47.92939 -87.37565 28317 ft 468 kts 120°
2026-04-23 16:59 47.91392 -87.33280 28633 ft 470 kts 120°
2026-04-23 16:59 47.89837 -87.28982 28984 ft 472 kts 120°
2026-04-23 17:00 47.88276 -87.24672 29313 ft 474 kts 120°
2026-04-23 17:00 47.86707 -87.20347 29622 ft 476 kts 120°
2026-04-23 17:00 47.85128 -87.16005 29901 ft 478 kts 120°
2026-04-23 17:00 47.83540 -87.11643 30167 ft 480 kts 120°
2026-04-23 17:01 47.81945 -87.07267 30429 ft 482 kts 120°
2026-04-23 17:01 47.80318 -87.02908 30696 ft 482 kts 123°
2026-04-23 17:01 47.78357 -86.98849 30847 ft 484 kts 132°
2026-04-23 17:01 47.75991 -86.95287 31085 ft 483 kts 141°
2026-04-23 17:02 47.73474 -86.92011 31524 ft 479 kts 141°
2026-04-23 17:02 47.71000 -86.88832 31990 ft 475 kts 141°
2026-04-23 17:02 47.68472 -86.85586 32340 ft 474 kts 141°
2026-04-23 17:02 47.66017 -86.82422 32590 ft 475 kts 141°
2026-04-23 17:03 47.63523 -86.79195 32879 ft 476 kts 141°
2026-04-23 17:03 47.61038 -86.75964 33229 ft 474 kts 141°
2026-04-23 17:03 47.58564 -86.72742 33591 ft 473 kts 141°
2026-04-23 17:03 47.56097 -86.69527 33892 ft 472 kts 141°
2026-04-23 17:04 47.53629 -86.66314 34133 ft 472 kts 141°
2026-04-23 17:04 47.51159 -86.63102 34352 ft 474 kts 141°
2026-04-23 17:04 47.48675 -86.59877 34481 ft 476 kts 141°
2026-04-23 17:04 47.46183 -86.56647 34723 ft 476 kts 141°
2026-04-23 17:05 47.43700 -86.53430 35042 ft 474 kts 141°
2026-04-23 17:05 47.41226 -86.50230 35336 ft 472 kts 141°
2026-04-23 17:05 47.38753 -86.47037 35551 ft 473 kts 141°
2026-04-23 17:05 47.36276 -86.43843 35749 ft 473 kts 141°
2026-04-23 17:06 47.33798 -86.40652 35983 ft 473 kts 141°
2026-04-23 17:06 47.31323 -86.37469 36227 ft 471 kts 142°
2026-04-23 17:06 47.28856 -86.34300 36527 ft 470 kts 142°
2026-04-23 17:06 47.26394 -86.31141 36742 ft 469 kts 142°
2026-04-23 17:07 47.23934 -86.27990 36913 ft 470 kts 142°
2026-04-23 17:07 47.21453 -86.24816 36952 ft 473 kts 142°
2026-04-23 17:07 47.16487 -86.18477 36972 ft 476 kts 142°
2026-04-23 17:08 47.11495 -86.12115 36961 ft 474 kts 142°
2026-04-23 17:08 47.06492 -86.05757 36954 ft 471 kts 142°
2026-04-23 17:09 47.01546 -85.99489 36960 ft 469 kts 142°
2026-04-23 17:09 46.96609 -85.93248 36956 ft 468 kts 142°
2026-04-23 17:10 46.91712 -85.87075 36954 ft 468 kts 142°
2026-04-23 17:10 46.86777 -85.80868 36952 ft 468 kts 142°
2026-04-23 17:11 46.81829 -85.74661 36960 ft 470 kts 142°
2026-04-23 17:11 46.76859 -85.68442 36963 ft 472 kts 142°
2026-04-23 17:12 46.71864 -85.62206 36958 ft 474 kts 142°
2026-04-23 17:12 46.66845 -85.55956 36964 ft 475 kts 142°
2026-04-23 17:13 46.61805 -85.49697 36959 ft 477 kts 142°
2026-04-23 17:13 46.56750 -85.43434 36966 ft 478 kts 142°
2026-04-23 17:14 46.51687 -85.37177 36969 ft 478 kts 142°
2026-04-23 17:14 46.46618 -85.30929 36961 ft 477 kts 142°
2026-04-23 17:15 46.41570 -85.24722 36968 ft 476 kts 142°
2026-04-23 17:15 46.36555 -85.18572 36990 ft 474 kts 142°
2026-04-23 17:16 46.31516 -85.12408 36982 ft 474 kts 142°
2026-04-23 17:16 46.26481 -85.06265 36987 ft 473 kts 142°
2026-04-23 17:17 46.21454 -85.00146 36999 ft 473 kts 142°
2026-04-23 17:17 46.16422 -84.94036 37006 ft 473 kts 142°
2026-04-23 17:18 46.08864 -84.84888 37014 ft 473 kts 143°
2026-04-23 17:19 46.03813 -84.78793 36992 ft 474 kts 143°
2026-04-23 17:19 45.98750 -84.72699 37012 ft 475 kts 143°
2026-04-23 17:20 45.93672 -84.66602 37011 ft 476 kts 143°
2026-04-23 17:21 45.83460 -84.54384 37013 ft 479 kts 143°
2026-04-23 17:21 45.75803 -84.45263 37015 ft 480 kts 143°
2026-04-23 17:22 45.68083 -84.36102 37014 ft 481 kts 143°
2026-04-23 17:23 45.60344 -84.26951 37015 ft 481 kts 143°
2026-04-23 17:24 45.52616 -84.17846 37021 ft 480 kts 143°
2026-04-23 17:24 45.44880 -84.08767 37028 ft 480 kts 143°
2026-04-23 17:25 45.37153 -83.99732 37013 ft 479 kts 143°
2026-04-23 17:26 45.26854 -83.87740 37026 ft 478 kts 143°
2026-04-23 17:27 45.19124 -83.78777 37043 ft 478 kts 143°
2026-04-23 17:27 45.13972 -83.72822 37042 ft 478 kts 143°
2026-04-23 17:28 45.08817 -83.66877 37058 ft 478 kts 143°
2026-04-23 17:28 45.03684 -83.60972 36978 ft 480 kts 143°
2026-04-23 17:29 45.01074 -83.57976 36454 ft 485 kts 143°
2026-04-23 17:29 44.98457 -83.54974 35980 ft 482 kts 143°
2026-04-23 17:29 44.93299 -83.49064 35169 ft 473 kts 143°
2026-04-23 17:30 44.91579 -83.47097 34898 ft 471 kts 143°
2026-04-23 17:30 44.85709 -83.40396 33960 ft 463 kts 143°
2026-04-23 17:30 44.83217 -83.37560 33509 ft 460 kts 143°
2026-04-23 17:31 44.80739 -83.34740 33077 ft 456 kts 143°
2026-04-23 17:31 44.78279 -83.31946 32674 ft 452 kts 143°
2026-04-23 17:31 44.75840 -83.29177 32296 ft 449 kts 143°
2026-04-23 17:31 44.73418 -83.26431 31906 ft 445 kts 143°
2026-04-23 17:32 44.71008 -83.23703 31517 ft 442 kts 143°
2026-04-23 17:32 44.68623 -83.21005 31137 ft 440 kts 143°
2026-04-23 17:32 44.66241 -83.18313 30758 ft 437 kts 143°
2026-04-23 17:32 44.64677 -83.16548 30509 ft 436 kts 143°
2026-04-23 17:33 44.62321 -83.13891 30152 ft 433 kts 143°
2026-04-23 17:33 44.59976 -83.11248 29700 ft 431 kts 143°
2026-04-23 17:33 44.57639 -83.08618 29275 ft 428 kts 143°
2026-04-23 17:33 44.55329 -83.06021 28884 ft 425 kts 143°
2026-04-23 17:34 44.53028 -83.03435 28474 ft 422 kts 143°
2026-04-23 17:34 44.50746 -83.00874 28075 ft 419 kts 143°
2026-04-23 17:34 44.46224 -82.95809 27309 ft 413 kts 143°
2026-04-23 17:35 44.43984 -82.93303 26932 ft 411 kts 143°
2026-04-23 17:35 44.39538 -82.88337 26182 ft 407 kts 143°
2026-04-23 17:35 44.37330 -82.85875 25804 ft 405 kts 143°
2026-04-23 17:36 44.35132 -82.83426 25428 ft 403 kts 143°
2026-04-23 17:36 44.32941 -82.80989 25060 ft 402 kts 143°
2026-04-23 17:36 44.30758 -82.78561 24685 ft 401 kts 143°
2026-04-23 17:36 44.28579 -82.76140 24281 ft 401 kts 143°
2026-04-23 17:37 44.26399 -82.73721 23909 ft 400 kts 143°
2026-04-23 17:37 44.24220 -82.71306 23492 ft 400 kts 143°
2026-04-23 17:37 44.19906 -82.66529 22688 ft 397 kts 143°
2026-04-23 17:38 44.17749 -82.64145 22295 ft 395 kts 143°
2026-04-23 17:38 44.15604 -82.61776 21928 ft 392 kts 143°
2026-04-23 17:38 44.13472 -82.59423 21555 ft 390 kts 143°
2026-04-23 17:38 44.11351 -82.57084 21191 ft 388 kts 143°
2026-04-23 17:39 44.09240 -82.54760 20830 ft 386 kts 143°
2026-04-23 17:39 44.07139 -82.52448 20469 ft 384 kts 143°
2026-04-23 17:39 44.05047 -82.50148 20101 ft 383 kts 143°
2026-04-23 17:39 44.02968 -82.47865 19740 ft 381 kts 143°
2026-04-23 17:40 44.00886 -82.45581 19378 ft 380 kts 143°
2026-04-23 17:40 43.98816 -82.43312 19014 ft 378 kts 143°
2026-04-23 17:40 43.96747 -82.41046 18632 ft 378 kts 143°
2026-04-23 17:40 43.94686 -82.38791 18274 ft 377 kts 143°
2026-04-23 17:41 43.92631 -82.36545 17850 ft 376 kts 143°
2026-04-23 17:41 43.88544 -82.32083 17081 ft 372 kts 143°
2026-04-23 17:41 43.86510 -82.29866 16700 ft 371 kts 143°
2026-04-23 17:42 43.82498 -82.25499 15975 ft 367 kts 143°
2026-04-23 17:42 43.80487 -82.23314 15617 ft 366 kts 143°
2026-04-23 17:42 43.78495 -82.21150 15266 ft 364 kts 143°
2026-04-23 17:43 43.76506 -82.18991 14921 ft 363 kts 143°
2026-04-23 17:43 43.74525 -82.16843 14565 ft 361 kts 142°
2026-04-23 17:43 43.72555 -82.14700 14219 ft 360 kts 141°
2026-04-23 17:43 43.70735 -82.12360 13999 ft 354 kts 134°
2026-04-23 17:44 43.69067 -82.09866 13668 ft 353 kts 131°
2026-04-23 17:44 43.67448 -82.07332 13312 ft 351 kts 131°
2026-04-23 17:44 43.64234 -82.02303 12627 ft 347 kts 132°
2026-04-23 17:45 43.62628 -81.99825 12281 ft 345 kts 132°
2026-04-23 17:45 43.59424 -81.94938 11607 ft 342 kts 133°
2026-04-23 17:45 43.57826 -81.92517 11269 ft 340 kts 133°
2026-04-23 17:46 43.54645 -81.87719 10601 ft 337 kts 134°
2026-04-23 17:46 43.53066 -81.85342 10317 ft 334 kts 133°
2026-04-23 17:46 43.51517 -81.83012 10186 ft 326 kts 134°
2026-04-23 17:47 43.50004 -81.80738 10038 ft 318 kts 134°
2026-04-23 17:47 43.48526 -81.78520 9964 ft 308 kts 134°
2026-04-23 17:47 43.45700 -81.74283 9600 ft 299 kts 134°
2026-04-23 17:48 43.44317 -81.72213 9515 ft 290 kts 134°
2026-04-23 17:48 43.42958 -81.70181 9312 ft 288 kts 134°
2026-04-23 17:48 43.41607 -81.68161 9039 ft 286 kts 134°
2026-04-23 17:48 43.40276 -81.66173 8768 ft 286 kts 134°
2026-04-23 17:49 43.38930 -81.64165 8471 ft 285 kts 134°
2026-04-23 17:49 43.37565 -81.62128 8174 ft 285 kts 134°
2026-04-23 17:49 43.36223 -81.60127 7922 ft 284 kts 134°
2026-04-23 17:49 43.34887 -81.58138 7666 ft 283 kts 134°
2026-04-23 17:50 43.33565 -81.56169 7388 ft 279 kts 134°
2026-04-23 17:50 43.30958 -81.52289 6604 ft 278 kts 134°
2026-04-23 17:50 43.29651 -81.50347 6211 ft 276 kts 134°
2026-04-23 17:51 43.28355 -81.48424 5847 ft 272 kts 134°
2026-04-23 17:51 43.27081 -81.46533 5517 ft 268 kts 134°
2026-04-23 17:51 43.24577 -81.42822 4911 ft 262 kts 134°
2026-04-23 17:52 43.23340 -81.40990 4639 ft 261 kts 134°
2026-04-23 17:52 43.20892 -81.37368 4238 ft 252 kts 133°
2026-04-23 17:52 43.19734 -81.35655 4179 ft 238 kts 134°
2026-04-23 17:53 43.17598 -81.32500 3989 ft 213 kts 134°
2026-04-23 17:53 43.16600 -81.31084 3899 ft 200 kts 137°
2026-04-23 17:53 43.15630 -81.29797 3807 ft 188 kts 137°
2026-04-23 17:54 43.14692 -81.28620 3648 ft 181 kts 139°
2026-04-23 17:54 43.13750 -81.27477 3427 ft 180 kts 140°
2026-04-23 17:54 43.11955 -81.25315 2972 ft 160 kts 140°
2026-04-23 17:55 43.10387 -81.23427 2545 ft 146 kts 139°
2026-04-23 17:55 43.09631 -81.22499 2372 ft 146 kts 139°
2026-04-23 17:55 43.08859 -81.21574 2137 ft 148 kts 139°
2026-04-23 17:56 43.08087 -81.20658 1958 ft 147 kts 138°
2026-04-23 17:56 43.06557 -81.18799 1574 ft 148 kts 139°
2026-04-23 17:56 43.05787 -81.17878 1349 ft 144 kts 138°
2026-04-23 17:57 43.05043 -81.16970 1168 ft 143 kts 139°
2026-04-23 17:57 43.04297 -81.16080 984 ft 141 kts 139°
2026-04-23 17:57 43.03063 -81.14603 900 ft 70 kts 139°
2026-04-23 17:58 43.02807 -81.14294 902 ft 41 kts 138°
2026-04-23 17:58 43.02627 -81.14075 901 ft 32 kts 139°
2026-04-23 17:58 43.02464 -81.13891 899 ft 29 kts 153°
2026-04-23 17:58 43.02320 -81.13961 900 ft 14 kts 243°
2026-04-23 17:59 43.02345 -81.14073 901 ft 13 kts 322°
2026-04-23 17:59 43.02416 -81.14148 901 ft 13 kts 320°
2026-04-23 17:59 43.02490 -81.14232 901 ft 15 kts 319°
2026-04-23 17:59 43.02578 -81.14335 901 ft 18 kts 316°
2026-04-23 18:00 43.02676 -81.14455 901 ft 19 kts 319°
2026-04-23 18:00 43.02775 -81.14575 901 ft 19 kts 317°
2026-04-23 18:00 43.02870 -81.14692 902 ft 18 kts 318°
2026-04-23 18:00 43.02914 -81.14777 901 ft 8 kts 269°
2026-04-23 18:01 43.02908 -81.14814 901 ft 1 kts 251°
2026-04-23 18:01 43.02906 -81.14820 901 ft 0 kts 253°